Home   Weather   Kowloon   Past weeks

Flag for Hong Kong Past Weather in Kowloon, Hong Kong — Yesterday and Last 2 Weeks

Now
75 °F

Passing clouds.


Feels Like: 77 °F
Forecast: 75 / 83 °F
Wind: 8 mph from North

Location: National Airport

Current Time: Sep 30, 2016 at 6:14:33 AM

Latest Report: Sep 30, 2016 at 5:30 AM


Visibility: N/A

Pressure: 29.74 "Hg

Humidity: 74%

Dew Point: 66 °F

Location of KowloonLocation

Past Weather in Kowloon — Graph

°F

Kowloon Temperature Yesterday

Maximum temperature yesterday: 86 °F (at 12:00 AM)
Minimum temperature yesterday: 77 °F (at 5:30 PM)
Average temperature yesterday: 80 °F

High & Low Weather Summary for the Past Weeks

 TemperatureHumidityPressure
High95 °F (Sep 27, 1:30 PM)94% (Sep 20, 2:30 AM)29.98 "Hg (Sep 20, 2:30 AM)
Low73 °F (Sep 20, 10:00 AM)44% (Sep 27, 5:00 PM)29.47 "Hg (Sep 28, 2:00 PM)
Average85 °F67%29.75 "Hg
* Reported Sep 15 5:00 AM — Sep 30 5:00 AM, Kowloon, Weather by CustomWeather, © 2016

Note: Actual official high and low records may vary slightly from our data, if they occured in-between our weather recording intervals... More about our weather records

Advertising

Kowloon Weather History for the Previous 24 Hours

Scroll right to see more
 ConditionsComfort  
Time TempWeatherWind HumidityBarometerVisibility
5:00 AM
Fri, Sep 30
75 °FPassing clouds.10 mph74%29.74 "HgN/A
4:30 AM75 °FPassing clouds.12 mph78%29.71 "HgN/A
4:00 AM75 °FPassing clouds.13 mph78%29.71 "HgN/A
3:30 AM75 °FPassing clouds.12 mph78%29.71 "HgN/A
3:00 AM75 °FPassing clouds.10 mph78%29.71 "HgN/A
2:30 AM75 °FPassing clouds.10 mph78%29.74 "HgN/A
2:00 AM79 °FPassing clouds.9 mph70%29.74 "HgN/A
1:00 AM77 °FPassing clouds.8 mph74%29.74 "HgN/A
12:30 AM77 °FPassing clouds.8 mph74%29.74 "HgN/A
12:00 AM77 °FPassing clouds.9 mph74%29.74 "HgN/A
11:30 PM
Thu, Sep 29
77 °FPassing clouds.10 mph69%29.74 "HgN/A
11:00 PM77 °FPassing clouds.9 mph69%29.77 "HgN/A
10:30 PM77 °FPassing clouds.10 mph69%29.77 "HgN/A
10:00 PM77 °FPassing clouds.9 mph69%29.77 "HgN/A
9:30 PM77 °FPassing clouds.12 mph69%29.74 "HgN/A
9:00 PM77 °FLight rain. Passing clouds.13 mph69%29.74 "HgN/A
8:30 PM77 °FPassing clouds.13 mph69%29.74 "HgN/A
8:00 PM77 °FPassing clouds.13 mph69%29.71 "HgN/A
7:30 PM77 °FPassing clouds.15 mph69%29.71 "HgN/A
7:00 PM77 °FPassing clouds.16 mph74%29.71 "HgN/A
6:30 PM77 °FPassing clouds.17 mph74%29.68 "HgN/A
6:00 PM77 °FScattered clouds.17 mph74%29.68 "HgN/A
5:30 PM77 °FScattered clouds.20 mph74%29.68 "HgN/A
5:00 PM79 °FPassing clouds.16 mph70%29.68 "HgN/A
4:30 PM79 °FPassing clouds.17 mph70%29.65 "HgN/A
4:00 PM79 °FScattered clouds.20 mph70%29.65 "HgN/A
3:30 PM79 °FScattered clouds.20 mph70%29.65 "HgN/A
3:00 PM79 °FScattered clouds.20 mph70%29.65 "HgN/A
2:30 PM79 °FScattered clouds.20 mph70%29.65 "HgN/A
2:00 PM79 °FScattered clouds.18 mph70%29.65 "HgN/A
1:30 PM79 °FScattered clouds.20 mph65%29.65 "HgN/A
1:00 PM79 °FPassing clouds.17 mph65%29.68 "HgN/A
12:30 PM81 °FPassing clouds.15 mph62%29.68 "HgN/A
12:00 PM81 °FPassing clouds.16 mph62%29.68 "HgN/A
11:30 AM81 °FPassing clouds.16 mph62%29.68 "HgN/A
11:00 AM81 °FLight rain. Scattered clouds.16 mph62%29.68 "HgN/A
10:30 AM81 °FLight rain. Passing clouds.13 mph62%29.68 "HgN/A
10:00 AM81 °FPassing clouds.13 mph58%29.68 "HgN/A
9:30 AM81 °FPassing clouds.14 mph58%29.68 "HgN/A
9:00 AM81 °FPassing clouds.15 mph58%29.65 "HgN/A
8:30 AM81 °FPassing clouds.15 mph58%29.65 "HgN/A
8:00 AM81 °FPassing clouds.17 mph58%29.65 "HgN/A
7:30 AM81 °FPassing clouds.18 mph62%29.62 "HgN/A
7:00 AM81 °FPassing clouds.17 mph66%29.62 "HgN/A
6:30 AM81 °FPassing clouds.17 mph66%29.59 "HgN/A
6:00 AM82 °FPassing clouds.17 mph62%29.59 "HgN/A
Weather by CustomWeather, © 2016

See weather overviewHow to use our weather pages